Regional Weather Roundup
Issued by NWS

Home | Current Version | Previous Version | Text Only | Print | Product List | Glossary On
Versions: 1 2 3 4 5 6 7 8 9 10 11 12 13 14 15 16 17 18 19 20 21 22 23 24 25 26 27 28 29 30 31 32 33 34 35 36 37 38 39 40 41 42 43 44 45 46 47 48 49 50
000
ASUS43 KOAX 230210
RWRNE

WEATHER ROUNDUP FOR NEBRASKA
NATIONAL WEATHER SERVICE OMAHA NE
900 PM CDT SUN OCT 22 2017

NOTES: SATELLITE DATA IS BEING USED TO AUGMENT CLOUD COVER ABOVE
       12000 FEET.
       "FAIR" INDICATES FEW OR NO CLOUDS BELOW 12,000 FEET WITH NO
       SIGNIFICANT WEATHER AND/OR OBSTRUCTIONS TO VISIBILITY.


NEZ001>004-019>022-054>056-230300-
NEBRASKA PANHANDLE

CITY           SKY/WX    TMP DP  RH WIND       PRES   REMARKS
SCOTTSBLUFF    CLEAR     60  28  29 W10       30.01R
ALLIANCE       CLEAR     58  30  34 W20       29.97S
CHADRON        CLOUDY    54  26  34 S8        29.93S
GORDON         FAIR      59  32  35 W9        29.94R
KIMBALL        CLEAR     57  27  31 W5        30.08R
SIDNEY         CLEAR     49  27  42 W9        30.04S
$$

NEZ057>060-069>072-079>082-230300-
SOUTHWEST NEBRASKA

CITY           SKY/WX    TMP DP  RH WIND       PRES   REMARKS
NORTH PLATTE   CLEAR     46  35  65 CALM      29.97S
IMPERIAL       CLEAR     54  29  38 W8        30.02R
LEXINGTON      CLOUDY    51  32  49 S8        29.97S
MCCOOK         PTCLDY    57  26  30 SW8       29.99S
OGALLALA       CLEAR     50  33  52 CALM      30.01R
$$

NEZ005>010-023>029-035>040-094-230300-
NORTH CENTRAL NEBRASKA

CITY           SKY/WX    TMP DP  RH WIND       PRES   REMARKS
VALENTINE      CLOUDY    50  34  54 SW13      29.88F
AINSWORTH      CLOUDY    47  36  67 SW8       29.90F
BROKEN BOW     CLOUDY    45  37  73 CALM      29.94F
O`NEILL        CLEAR     51  37  58 S8        29.90F
ORD            CLOUDY    49  34  56 SW10      29.93F
THEDFORD       PTCLDY    52  35  52 SW3       29.95R
$$

NEZ041-046>049-061>064-073>077-083>087-230300-
SOUTH CENTRAL NEBRASKA

CITY           SKY/WX    TMP DP  RH WIND       PRES   REMARKS
GRAND ISLAND   CLOUDY    52  33  48 S8        29.98F
AURORA         CLEAR     56  30  36 S10       29.98F
HASTINGS       CLOUDY    54  29  38 S9        29.99F
HEBRON         CLEAR     55  31  40 S8        30.02S
HOLDREGE       CLOUDY    56  29  35 S9        29.99F
KEARNEY        CLOUDY    55  29  36 S9        29.98F
YORK           CLEAR     54  32  43 S9        29.99F
$$

NEZ011>018-030>034-042>045-230300-
NORTHEAST NEBRASKA

CITY           SKY/WX    TMP DP  RH WIND       PRES   REMARKS
NORFOLK        CLEAR     55  31  39 S13       29.91F
ALBION         CLEAR     52  33  48 SE5       29.94F
BLAIR          CLEAR     56  33  42 S7        29.99R
COLUMBUS       CLEAR     53  33  46 S8        29.97F
FREMONT        PTCLDY    58  30  34 S8        29.98F
TEKAMAH        PTCLDY    48  34  58 S7        29.97S
WAYNE          CLEAR     49  29  45 S8        29.92F
$$

NEZ050>053-065>068-078-088>093-230300-
SOUTHEAST NEBRASKA

CITY           SKY/WX    TMP DP  RH WIND       PRES   REMARKS
LINCOLN        PTCLDY    51  34  52 S6        30.02R
OMAHA EPPLEY   CLEAR     57  33  40 S6        30.00S
BEATRICE       CLEAR     54  33  45 S8        30.02F
FALLS CITY     CLEAR     55  34  45 S8        30.03F
NEBRASKA CITY  CLEAR     53  34  49 S8        30.02F
PLATTSMOUTH    CLEAR     54  34  46 S10       30.01S
$$

NEZ044-045-051>053-067-230300-
OMAHA AREA

CITY           SKY/WX    TMP DP  RH WIND       PRES   REMARKS
OMAHA EPPLEY   CLEAR     57  33  40 S6        30.00S
BLAIR          CLEAR     56  33  42 S7        29.99R
FREMONT        PTCLDY    58  30  34 S8        29.98F
MILLARD        CLEAR     57  34  41 SE3       30.00R
OFFUTT AFB     CLEAR     43  38  81 CALM      29.99F
PLATTSMOUTH    CLEAR     54  34  46 S10       30.01S
WAHOO          FAIR      52  32  45 S6        29.99S
$$




USA.gov is the U.S. government's official web portal to all federal, state and local government web resources and services.